Date String (YYYY-MM-DD hh:mm:ss) UTC,Instrument flags,Ambient pressure (hPa),Sample flow (lpm),Bypass flow (lpm),Sample temperature (°C),Ambient temperature (°C),ASC tube jacket temperature (°C),LED temperature (°C),Box temperature (°C),Sample RH (%),Span deviation,Mass concentration (μg/m³),Mass concentration (μg/m³),Mass concentration (μg/m³)
DateTimeUTC,F1_M11,P_M11,Q1_M11,Q2_M11,T1_M11,T2_M11,T3_M11,T4_M11,T5_M11,U1_M11,ZSPAN_M11,X0_M11,X2_M11,X1_M11
2022-10-29 09:00:00,,0829.5,5.00,0.00,24.6,22.8,00.0,33.5,26.3,08.3,0000.0,0002.51,0001.88,0001.59
2022-10-29 09:01:00,,0829.5,5.00,0.00,24.5,22.8,00.0,33.5,26.3,08.4,0000.0,0002.53,0001.88,0001.58
2022-10-29 09:02:00,,0829.5,5.01,0.00,24.5,22.8,00.0,33.5,26.3,08.6,0000.0,0002.46,0001.84,0001.56
2022-10-29 09:03:00,,0829.5,5.01,0.00,24.5,22.8,00.0,33.5,26.3,08.8,0000.0,0002.43,0001.82,0001.55
2022-10-29 09:04:00,,0829.5,4.98,0.00,24.5,22.8,00.0,33.5,26.3,08.7,0000.0,0002.47,0001.84,0001.57
2022-10-29 09:05:00,,0829.5,5.02,0.00,24.5,22.8,00.0,33.4,26.3,08.7,0000.0,0002.42,0001.81,0001.58
2022-10-29 09:06:00,,0829.5,4.98,0.00,24.5,22.8,00.0,33.4,26.3,08.6,0000.0,0002.36,0001.81,0001.60
2022-10-29 09:07:00,,0829.5,5.01,0.00,24.5,22.8,00.0,33.4,26.2,08.6,0000.0,0002.37,0001.81,0001.60
2022-10-29 09:08:00,,0829.5,5.01,0.00,24.5,22.8,00.0,33.4,26.2,08.6,0000.0,0002.35,0001.81,0001.61
2022-10-29 09:09:00,,0829.5,5.00,0.00,24.5,22.8,00.0,33.4,26.3,08.7,0000.0,0002.43,0001.85,0001.64
2022-10-29 09:10:00,,0829.5,5.01,0.00,24.5,22.7,00.0,33.4,26.3,08.7,0000.0,0002.49,0001.90,0001.67
2022-10-29 09:11:00,,0829.5,5.00,0.00,24.5,22.7,00.0,33.4,26.2,08.8,0000.0,0002.56,0001.93,0001.71
2022-10-29 09:12:00,,0829.5,5.00,0.00,24.5,22.7,00.0,33.4,26.2,08.8,0000.0,0002.57,0001.96,0001.74
2022-10-29 09:13:00,,0829.4,4.98,0.00,24.5,22.7,00.0,33.4,26.3,08.8,0000.0,0002.65,0002.01,0001.77
2022-10-29 09:14:00,,0829.5,5.00,0.00,24.5,22.7,00.0,33.4,26.3,08.9,0000.0,0002.67,0002.04,0001.80
2022-10-29 09:15:00,,0829.5,5.02,0.00,24.4,22.7,00.0,33.4,26.2,09.0,0000.0,0002.63,0002.03,0001.81
2022-10-29 09:16:00,,0829.5,4.98,0.00,24.4,22.7,00.0,33.4,26.1,09.1,0000.0,0002.58,0002.02,0001.82
2022-10-29 09:17:00,,0829.5,5.01,0.00,24.4,22.7,00.0,33.3,26.2,09.0,0000.0,0003.07,0002.03,0001.84
2022-10-29 09:18:00,,0829.5,5.01,0.00,24.4,22.7,00.0,33.3,26.2,09.1,0000.0,0003.24,0002.06,0001.87
2022-10-29 09:19:00,,0829.5,5.00,0.00,24.4,22.7,00.0,33.3,26.2,09.1,0000.0,0003.29,0002.10,0001.90
2022-10-29 09:20:00,,0829.5,5.01,0.00,24.4,22.7,00.0,33.3,26.3,09.1,0000.0,0003.60,0002.12,0001.92
2022-10-29 09:21:00,,0829.5,4.98,0.00,24.4,22.7,00.0,33.3,26.2,09.1,0000.0,0004.42,0002.12,0001.93
2022-10-29 09:22:00,,0829.5,5.00,0.00,24.4,22.7,00.0,33.3,26.1,09.1,0000.0,0004.38,0002.09,0001.94
2022-10-29 09:23:00,,0829.5,5.00,0.00,24.4,22.7,00.0,33.3,26.1,09.1,0000.0,0005.21,0002.12,0001.96
2022-10-29 09:24:00,,0829.4,5.00,0.00,24.4,22.7,00.0,33.3,26.1,09.0,0000.0,0005.34,0002.14,0001.97
2022-10-29 09:25:00,,0829.4,5.01,0.00,24.4,22.7,00.0,33.3,26.2,08.8,0000.0,0005.43,0002.16,0001.97
2022-10-29 09:26:00,,0829.3,5.01,0.00,24.4,22.7,00.0,33.3,26.1,08.8,0000.0,0005.45,0002.17,0001.96
2022-10-29 09:27:00,,0829.3,5.00,0.00,24.3,22.7,00.0,33.3,26.1,08.8,0000.0,0005.62,0002.20,0001.95
2022-10-29 09:28:00,,0829.3,4.98,0.00,24.3,22.7,00.0,33.3,26.1,08.8,0000.0,0006.01,0002.19,0001.93
2022-10-29 09:29:00,,0829.2,5.00,0.00,24.3,22.7,00.0,33.3,26.2,08.8,0000.0,0005.66,0002.19,0001.90
2022-10-29 09:30:00,,0829.3,5.01,0.00,24.3,22.6,00.0,33.3,26.1,08.8,0000.0,0006.34,0002.17,0001.87
2022-10-29 09:31:00,,0829.3,5.01,0.00,24.3,22.6,00.0,33.2,26.0,08.8,0000.0,0006.75,0002.13,0001.84
2022-10-29 09:32:00,,0829.4,4.98,0.00,24.3,22.6,00.0,33.2,26.0,08.7,0000.0,0005.67,0002.10,0001.82
2022-10-29 09:33:00,,0829.4,5.00,0.00,24.3,22.6,00.0,33.2,26.1,08.7,0000.0,0005.90,0002.09,0001.79
2022-10-29 09:34:00,,0829.3,5.00,0.00,24.3,22.6,00.0,33.2,26.1,08.8,0000.0,0005.70,0002.02,0001.76
2022-10-29 09:35:00,,0829.3,5.01,0.00,24.3,22.6,00.0,33.2,26.1,08.7,0000.0,0005.42,0001.97,0001.73
2022-10-29 09:36:00,,0829.3,5.01,0.00,24.3,22.6,00.0,33.2,26.0,08.7,0000.0,0005.40,0001.93,0001.71
2022-10-29 09:37:00,,0829.3,5.00,0.00,24.3,22.6,00.0,33.2,26.0,08.9,0000.0,0005.53,0001.92,0001.69
2022-10-29 09:38:00,,0829.3,5.00,0.00,24.3,22.6,00.0,33.2,26.0,09.2,0000.0,0005.33,0001.89,0001.67
2022-10-29 09:39:00,,0829.3,4.98,0.00,24.2,22.6,00.0,33.2,26.0,09.5,0000.0,0004.69,0001.86,0001.65
2022-10-29 09:40:00,,0829.2,5.00,0.00,24.3,22.6,00.0,33.2,26.0,09.5,0000.0,0004.62,0001.81,0001.62
2022-10-29 09:41:00,,0829.3,5.01,0.00,24.2,22.6,00.0,33.2,26.0,09.1,0000.0,0003.84,0001.76,0001.60
2022-10-29 09:42:00,,0829.2,5.01,0.00,24.2,22.6,00.0,33.2,26.0,09.3,0000.0,0003.40,0001.76,0001.59
2022-10-29 09:43:00,,0829.3,5.01,0.00,24.2,22.6,00.0,33.2,26.0,09.5,0000.0,0003.40,0001.78,0001.60
2022-10-29 09:44:00,,0829.3,4.99,0.00,24.2,22.6,00.0,33.2,26.0,09.7,0000.0,0003.09,0001.79,0001.62
2022-10-29 09:45:00,,0829.4,5.00,0.00,24.2,22.6,00.0,33.2,26.0,10.0,0000.0,0002.54,0001.82,0001.64
2022-10-29 09:46:00,,0829.4,5.00,0.00,24.2,22.6,00.0,33.1,26.0,10.3,0000.0,0002.72,0001.91,0001.69
2022-10-29 09:47:00,,0829.5,5.00,0.00,24.2,22.6,00.0,33.1,26.0,10.5,0000.0,0002.82,0001.99,0001.75
2022-10-29 09:48:00,,0829.4,5.00,0.00,24.2,22.6,00.0,33.1,26.0,10.6,0000.0,0002.88,0002.08,0001.83
2022-10-29 09:49:00,,0829.2,5.00,0.00,24.2,22.5,00.0,33.1,26.0,10.7,0000.0,0002.96,0002.16,0001.91
2022-10-29 09:50:00,,0829.4,5.00,0.00,24.2,22.5,00.0,33.1,26.0,10.8,0000.0,0003.17,0002.27,0002.00
2022-10-29 09:51:00,,0829.3,5.00,0.00,24.2,22.5,00.0,33.1,26.0,10.8,0000.0,0003.33,0002.40,0002.11
2022-10-29 09:52:00,,0829.4,5.00,0.00,24.2,22.5,00.0,33.1,26.0,10.9,0000.0,0003.62,0002.57,0002.22
2022-10-29 09:53:00,,0829.3,5.00,0.00,24.2,22.5,00.0,33.1,26.0,10.9,0000.0,0003.75,0002.67,0002.32
2022-10-29 09:54:00,,0829.3,4.97,0.00,24.2,22.5,00.0,33.1,26.0,10.9,0000.0,0004.59,0002.77,0002.39
2022-10-29 09:55:00,,0829.3,5.02,0.00,24.2,22.6,00.0,33.1,26.0,10.7,0000.0,0006.35,0002.89,0002.48
2022-10-29 09:56:00,,0829.3,4.98,0.00,24.2,22.6,00.0,33.1,26.0,10.6,0000.0,0006.75,0003.01,0002.55
2022-10-29 09:57:00,,0829.3,5.01,0.00,24.2,22.6,00.0,33.1,26.0,10.4,0000.0,0006.85,0003.03,0002.59
2022-10-29 09:58:00,,0829.3,5.00,0.00,24.2,22.6,00.0,33.1,26.0,10.2,0000.0,0007.38,0003.04,0002.61
2022-10-29 09:59:00,,0829.3,5.01,0.00,24.2,22.6,00.0,33.1,26.0,10.2,0000.0,0007.74,0003.00,0002.60
